Weather History for Avoca, PA

Change the Weather History Date:

Friday, January 25, 2013

  Actual Average Record
Temperature  
Mean Temperature 12 °F 26 °F  
Max Temperature 17 °F 33 °F 67 °F (1967)
Min Temperature 6 °F 18 °F -5 °F (1961)
Degree Days  
Heating Degree Days 53 39  
Month to date heating degree days 913 974  
Since 1 July heating degree days 3027 3352  
Cooling Degree Days 0 0  
Month to date cooling degree days 0 0  
Year to date cooling degree days 0 0  
Moisture  
Dew Point 5 °F    
Average Humidity 74    
Maximum Humidity 88    
Minimum Humidity 59    
Precipitation  
Precipitation 0.04 in 0.08 in 1.23 in (2010)
Month to date precipitation 0.78 1.89  
Year to date precipitation 0.78 1.89  
Sea Level Pressure  
Sea Level Pressure 30.21 in    
Wind  
Wind Speed 2 mph (West)    
Max Wind Speed 16 mph    
Max Gust Speed 20 mph    
Visibility 7 miles    
Events Snow    
T = Trace of Precipitation, MM = Missing Value Source: NWS Daily Summary

Daily Weather History Graph

Daily Weather History Graph

Search for Another Location

Airport:

Trip Planner

Search our weather history database for the weather conditions in past years. The results will help you decide how hot, cold, wet, or windy it might be!

Date:

Astronomy

Jan. 25, 2013 Rise Set
Actual Time 7:20 AM EST 5:10 PM EST
Civil Twilight 6:50 AM EST 5:40 PM EST
Nautical Twilight 6:17 AM EST 6:14 PM EST
Astronomical Twilight 5:44 AM EST 6:46 PM EST
Moon 4:05 PM EST (1/25) 5:58 AM EST (1/25)
Length of Visible Light 10h 50m
Length of Day
9h 50m
Waxing Gibbous, 98% of the Moon is Illuminated
Jan 25
Waxing Gibbous
Jan 26
Full
Feb 3
Last Quarter
Feb 10
New
Feb 17
First Quarter

Hourly Weather History & Observations

Time (EST) Temp. Windchill Dew Point Humidity Pressure Visibility Wind Dir Wind Speed Gust Speed Precip Events Conditions
12:54 AM 8.1 °F -2.0 °F -2.0 °F 64% 30.46 in 10.0 mi NW 5.8 mph - N/A   Clear
1:54 AM 8.1 °F -4.3 °F -2.0 °F 64% 30.45 in 10.0 mi NW 8.1 mph - N/A   Clear
2:54 AM 8.1 °F -3.2 °F -2.0 °F 64% 30.45 in 10.0 mi NNW 6.9 mph - N/A   Clear
3:54 AM 7.0 °F - -0.9 °F 70% 30.43 in 10.0 mi Calm Calm - N/A   Clear
4:54 AM 7.0 °F - -0.9 °F 70% 30.43 in 10.0 mi Calm Calm - N/A   Clear
5:54 AM 6.1 °F - -0.0 °F 76% 30.41 in 10.0 mi Calm Calm - N/A   Clear
6:54 AM 7.0 °F 0.1 °F -0.0 °F 73% 30.41 in 10.0 mi SW 3.5 mph - N/A   Clear
7:54 AM 8.1 °F 1.4 °F -0.0 °F 70% 30.40 in 10.0 mi SW 3.5 mph - N/A   Clear
8:54 AM 9.0 °F 2.4 °F 1.0 °F 70% 30.40 in 10.0 mi SW 3.5 mph - N/A   Clear
9:54 AM 10.9 °F - 1.9 °F 67% 30.39 in 10.0 mi Calm Calm - N/A   Clear
10:54 AM 12.0 °F - 1.9 °F 64% 30.35 in 10.0 mi Calm Calm - N/A   Clear
11:54 AM 14.0 °F - 3.0 °F 62% 30.31 in 10.0 mi Calm Calm - N/A   Overcast
12:54 PM 15.1 °F 9.4 °F 3.9 °F 61% 30.25 in 10.0 mi NW 3.5 mph - N/A   Overcast
1:54 PM 15.1 °F - 3.9 °F 61% 30.20 in 10.0 mi Calm Calm - N/A   Overcast
2:54 PM 16.0 °F - 5.0 °F 62% 30.16 in 10.0 mi Calm Calm - N/A   Overcast
3:54 PM 16.0 °F 10.4 °F 7.0 °F 68% 30.15 in 3.0 mi Variable 3.5 mph - 0.00 in Snow Light Snow
3:57 PM 15.8 °F - 6.8 °F 68% 30.10 in 1.8 mi Calm Calm - 0.00 in Snow Light Snow
4:16 PM 15.8 °F - 8.6 °F 73% 30.09 in 0.8 mi Calm Calm - 0.00 in Snow Light Snow
4:24 PM 15.8 °F - 10.4 °F 79% 30.09 in 1.5 mi Calm Calm - 0.01 in Snow Light Snow
4:54 PM 15.1 °F - 10.9 °F 84% 30.13 in 0.8 mi Calm Calm - 0.01 in Snow Light Snow
5:29 PM 15.8 °F - 10.4 °F 79% 30.06 in 1.5 mi Calm Calm - 0.01 in Snow Light Snow
5:54 PM 15.1 °F 9.4 °F 12.0 °F 88% 30.12 in 1.8 mi West 3.5 mph - 0.02 in Snow Light Snow
6:01 PM 15.8 °F 10.2 °F 10.4 °F 79% 30.06 in 2.5 mi West 3.5 mph - 0.00 in Snow Light Snow
6:14 PM 15.8 °F 10.2 °F 12.2 °F 86% 30.06 in 1.0 mi West 3.5 mph - 0.00 in Snow Light Snow
6:54 PM 15.1 °F 7.7 °F 10.9 °F 84% 30.10 in 2.0 mi South 4.6 mph - 0.01 in Snow Light Snow
7:26 PM 14.0 °F 8.2 °F 8.6 °F 79% 30.04 in 3.0 mi SW 3.5 mph - 0.00 in Snow Light Snow
7:54 PM 14.0 °F - 8.1 °F 77% 30.09 in 6.0 mi Calm Calm - 0.00 in   Haze
8:54 PM 10.9 °F - 7.0 °F 84% 30.07 in 8.0 mi Calm Calm - N/A   Mostly Cloudy
9:54 PM 8.1 °F - 5.0 °F 87% 30.06 in 6.0 mi Calm Calm - N/A   Scattered Clouds
10:06 PM 8.6 °F - 3.2 °F 79% 30.01 in 6.0 mi Calm Calm - N/A   Mostly Cloudy
10:54 PM 9.0 °F - 5.0 °F 84% 30.05 in 7.0 mi Calm Calm - 0.00 in   Mostly Cloudy
11:05 PM 8.6 °F 2.0 °F 5.0 °F 85% 30.01 in 8.0 mi ESE 3.5 mph - N/A   Scattered Clouds
11:16 PM 10.4 °F - 6.8 °F 85% 30.01 in 8.0 mi Calm Calm - N/A   Mostly Cloudy
11:54 PM 10.0 °F - 6.1 °F 84% 30.07 in 7.0 mi Calm Calm - N/A   Overcast